Tracking 23610 objects as of 19-Sep-2021
HD Live streaming from Space Station
objects crossing your sky now

STARLINK-2604

Track STARLINK-2604 now!
10-day predictions
STARLINK-2604 is classified as:


NORAD ID: 48374
Int'l Code: 2021-038X
Perigee: 552.9 km
Apogee: 555.8 km
Inclination: 53.1 °
Period: 95.6 minutes
Semi major axis: 6925 km
RCS: Unknown
Launch date: May 4, 2021
Source: United States (US)
Launch site: AIR FORCE EASTERN TEST RANGE (AFETR)
aabbcc
Your satellite tracking list
Your tracking list is empty




NASA's NSSDC Master Catalog

Two Line Element Set (TLE):
1 48374U 21038X   21261.55509526  .00000947  00000-0  82495-4 0  9991
2 48374  53.0553 123.0301 0002076  79.2910 280.8313 15.06400599 21010
Source of the keplerian elements: AFSPC